Location: Breux
(46.3269°N, 3.2993°E)
Time: 03:49:36
(UTC+00:00)

Tianhe-1 - Visible Passes

Search period start: 25 June 2021 00:00
Search period end: 05 July 2021 00:00
Orbit: 375 x 385 km, 41.5° (Epoch: 24 June)

Date Brightness Start Highest point End Pass type
(mag) Time Alt. Az. Time Alt. Az. Time Alt. Az.
25 Jun 2.0 02:34:01 18° SW 02:35:43 31° S 02:38:33 10° ESE visible
26 Jun 2.6 01:35:35 23° SE 01:35:35 23° SE 01:37:27 10° ESE visible
26 Jun 1.9 03:08:14 10° WSW 03:11:05 32° S 03:13:57 10° ESE visible
27 Jun 1.8 02:09:19 29° SSW 02:10:04 33° S 02:12:56 10° ESE visible
28 Jun 3.3 01:11:03 15° ESE 01:11:03 15° ESE 01:11:49 10° ESE visible
28 Jun 2.0 02:43:10 14° WSW 02:45:21 28° S 02:48:07 10° SE visible
29 Jun 2.2 01:45:05 27° SSE 01:45:05 27° SSE 01:47:07 10° ESE visible
30 Jun 2.2 02:19:30 23° SSW 02:19:30 23° SSW 02:22:02 10° SE visible
01 Jul 3.0 02:54:30 13° SSW 02:54:30 13° SSW 02:55:54 10° S visible
03 Jul 2.9 20:36:52 10° S 20:38:30 14° SSE 20:39:31 12° SE visible
04 Jul 2.2 21:10:47 10° SW 21:13:23 24° SSE 21:13:56 23° SSE visible
